Regional Weather Roundup
Issued by NWS

Home | Current Version | Previous Version | Text Only | Print | Product List | Glossary Off
Versions: 1 2 3 4 5 6 7 8 9 10 11 12 13 14 15 16 17 18 19 20 21 22 23 24 25 26 27 28 29 30 31 32 33 34 35 36 37 38 39 40 41 42 43 44 45 46 47 48 49 50

000
ASUS45 KABQ 270410
RWRNM
WEATHER ROUNDUP FOR NEW MEXICO
NATIONAL WEATHER SERVICE ALBUQUERQUE NM
900 PM MST FRI DEC 26 2014

NOTE: "FAIR" MEANS FEW OR NO CLOUDS BELOW 12,000 FEET AGL WITH NO
       SIGNIFICANT WEATHER OR OBSTRUCTIONS TO VISION.

      THIS PRODUCT IS RELEASED AS TWO VERSIONS.  ONE VERSION NEAR
      THE TOP OF THE HOUR CONTAINING PRELIMINARY DATA FROM ALBUQUERQUE
      AND OTHER STATIONS.  A FINAL VERSION WITH ADDITIONAL DATA IS
      ISSUED ABOUT 10 MINUTES AFTER THE HOUR.

NMZ501-503-504-510>518-270500-
NORTHWEST PLATEAU/NORTHCENTRAL MOUNTAINS

CITY           SKY/WX    TMP DP  RH WIND       PRES   REMARKS
FARMINGTON     PTCLDY    20  14  77 NW3       30.02R
LOS ALAMOS     PTCLDY    21   9  60 W6        29.99R WCI  14
SANTA FE       PTCLDY    15   6  67 N6        30.00R WCI   6
TAOS           MOCLDY    16   9  73 S6        29.99R WCI   7
ANGEL FIRE     LGT SNOW  15   9  76 N6        29.94R WCI   7

$$
NMZ402-403-502-505>509-270500-
WESTCENTRAL MOUNTAINS/SOUTHWEST MOUNTAINS

CITY           SKY/WX    TMP DP  RH WIND       PRES   REMARKS
GALLUP         PTCLDY    11   8  88 CALM      30.03R
GRANTS         CLEAR     12   9  87 NW7       30.02S WCI   2
SILVER CITY    CLEAR     27   9  46 NW14      30.01R WCI  15

$$
NMZ407-409-411-412-270500-
SOUTHERN DESERTS

CITY           SKY/WX    TMP DP  RH WIND       PRES   REMARKS
LORDSBURG      FAIR      32  18  55 W6        30.02R WCI  26
DEMING         CLEAR     31  17  56 W6        30.02R WCI  25
LAS CRUCES     CLOUDY    37  20  51 SW8       30.01S WCI  31
HOLLOMAN AFB   PTCLDY    38  28  68 S5        30.02R WCI  35
ALAMOGORDO     CLOUDY    37  27  65 S8        30.04R WCI  31
T OR C         CLEAR     31   9  39 N6        30.02R WCI  25

$$
NMZ519>523-270500-
CENTRAL VALLEYS/CENTRAL HIGHLANDS

CITY           SKY/WX    TMP DP  RH WIND       PRES   REMARKS
ALBUQUERQUE    PTCLDY    27  13  55 SE3       30.05R
DOUBLE EAGLE   CLEAR     19   9  63 W6        30.03R WCI  11
MORIARTY ARPT  FAIR       2  -2  83 CALM      30.03R
CLINES CORNERS PTCLDY    10   3  73 NW12      29.95R WCI  -5
BELEN          FAIR      21  11  67 CALM      30.04R
SOCORRO        FAIR      29   9  42 CALM      30.05R

$$
NMZ524>526-539-540-270500-
SOUTHCENTRAL MOUNTAINS

CITY           SKY/WX    TMP DP  RH WIND       PRES   REMARKS
RUIDOSO        PTCLDY    19   9  63 W10       30.01S WCI   8

$$
NMZ527>531-270500-
NORTHEAST HIGHLANDS/NORTHEAST PLAINS

CITY           SKY/WX    TMP DP  RH WIND       PRES   REMARKS
LAS VEGAS      FOG       15  13  91 NE3       29.98R VSB 1/4
RATON          CLOUDY    14   9  80 NE3       29.99R
CLAYTON        PTCLDY    12   9  87 NW6       30.05S WCI   3

$$
NMZ532>537-270500-
EASTCENTRAL PLAINS

CITY           SKY/WX    TMP DP  RH WIND       PRES   REMARKS
TUCUMCARI      PTCLDY    15  12  88 NE6       30.08R FOG     WCI   6
CANNON AFB     PTCLDY    26  23  88 NE10      30.06R WCI  16
CLOVIS AIRPORT MOCLDY    27  21  80 N13       30.05F WCI  16

$$
NMZ028-029-538-270500-
SOUTHEAST PLAINS

CITY           SKY/WX    TMP DP  RH WIND       PRES   REMARKS
ROSWELL        MOCLDY    39  26  59 N14       30.02R WCI  31
ARTESIA        CLOUDY    43  28  56 N7        30.05R
CARLSBAD       CLOUDY    45  32  60 N3        30.03R
HOBBS          LGT RAIN  43  32  65 NW12      30.03S


$$


USA.gov is the U.S. government's official web portal to all federal, state and local government web resources and services.